Location: Asheville, NC
(35.6000°N, 82.5500°W)
Time: 17:30:54

KAITUO 1B - Pass Details

Date: 17 March 2018
Orbit: 500 x 520 km, 97.5° (Epoch: 20 March)

Event Time Altitude Azimuth Distance (km) Brightness Sun altitude
Rises 06:36:07 0° 40° (NE) 2,643 ? -13.4°
Maximum altitude 06:40:43 10° 92° (E) 1,752 ? -12.5°
Drops below altitude 10° 06:40:44 10° 92° (E) 1,752 ? -12.5°
Sets 06:45:17 0° 144° (SE) 2,628 ? -11.6°
